Home   Weather   Worb   Past weeks

Flag for Switzerland Past Weather in Worb, Bern, Switzerland — Yesterday and Last 2 Weeks

Now
30 °F

Ice fog.


Feels Like: 30 °F
Forecast: 26 / 54 °F
Wind: 1 mph from North

Location: Bern / Belp

Current Time: Apr 29, 2017 at 1:49:45 am

Latest Report: Apr 29, 2017 at 1:20 am


Visibility: 3 mi

Pressure: 30.09 "Hg (27.97 "Hg at 583m altitude)

Humidity: 93%

Dew Point: 28 °F

Location of WorbLocation

Past Weather in Worb — Graph

°F

Worb Temperature Yesterday

Maximum temperature yesterday: 46 °F (at 12:50 pm)
Minimum temperature yesterday: 32 °F (at 3:50 am)
Average temperature yesterday: 38 °F

High & Low Weather Summary for the Past Weeks

 TemperatureHumidityPressure
High70 °F (Apr 24, 4:50 pm)100% (Apr 14, 3:20 am)30.45 "Hg (Apr 14, 3:20 am)
Low21 °F (Apr 21, 5:50 am)23% (Apr 21, 4:50 pm)29.68 "Hg (Apr 25, 10:20 pm)
Average44 °F74%30.09 "Hg
* Reported Apr 14 12:20 am — Apr 29 12:20 am, Worb, Weather by CustomWeather, © 2017

Note: Actual official high and low records may vary slightly from our data, if they occured in-between our weather recording intervals... More about our weather records

Advertising

Worb Weather History for the Previous 24 Hours

Scroll right to see more
 ConditionsComfort  
Time TempWeatherWind HumidityBarometerVisibility
12:20 am
Sat, Apr 29
30 °FPassing clouds.3 mph100%30.09 "Hg4 mi
11:50 pm
Fri, Apr 28
32 °FChilly.5 mph93%30.09 "HgN/A
11:20 pm32 °FPassing clouds.5 mph93%30.09 "HgN/A
10:50 pm34 °FClear.5 mph93%30.09 "Hg10 mi
10:20 pm34 °FPassing clouds.5 mph93%30.07 "HgN/A
9:50 pm36 °FPassing clouds.5 mph93%30.07 "HgN/A
9:20 pm37 °FPassing clouds.5 mph87%30.07 "HgN/A
8:50 pm39 °FPassing clouds.5 mph81%30.07 "HgN/A
8:20 pm41 °FBroken clouds.3 mph76%30.04 "HgN/A
7:50 pm41 °FDrizzle. Partly sunny.6 mph81%30.04 "HgN/A
7:20 pm43 °FDrizzle. Partly sunny.3 mph81%30.04 "HgN/A
6:50 pm43 °FPartly sunny.5 mph76%30.04 "HgN/A
6:20 pm45 °FBroken clouds.8 mph76%30.04 "HgN/A
5:50 pm43 °FBroken clouds.5 mph81%30.04 "HgN/A
5:20 pm39 °FLight rain. Broken clouds.3 mph81%30.04 "HgN/A
4:50 pm39 °FLight rain. Broken clouds.12 mph87%30.01 "HgN/A
4:20 pm46 °FBroken clouds.3 mph62%30.01 "HgN/A
3:50 pm46 °FBroken clouds.6 mph66%30.01 "HgN/A
3:20 pm46 °FLight rain. Partly sunny.8 mph71%30.01 "HgN/A
2:50 pm45 °FMore clouds than sun.7 mph71%30.01 "HgN/A
2:20 pm43 °FLight rain. Broken clouds.10 mph71%30.01 "HgN/A
1:50 pm45 °FBroken clouds.6 mph81%29.98 "HgN/A
1:20 pm45 °FBroken clouds.6 mph76%29.98 "HgN/A
12:50 pm46 °FBroken clouds.7 mph76%29.98 "HgN/A
12:20 pm41 °FBroken clouds.5 mph87%29.98 "HgN/A
11:50 am41 °FCloudy.6 mph87%29.98 "HgN/A
11:20 am41 °FBroken clouds.5 mph87%29.95 "Hg4 mi
10:50 am39 °FLight rain. Partly sunny.1 mph93%29.95 "HgN/A
10:20 am39 °FLight rain. Broken clouds.3 mph93%29.95 "HgN/A
9:50 am37 °FLight rain. Broken clouds.2 mph93%29.92 "Hg3 mi
9:20 am36 °FLight rain. Low clouds.1 mph100%29.92 "Hg2 mi
8:50 am34 °FLight snow. Low clouds.2 mph100%29.92 "Hg2 mi
8:20 am34 °FLight snow. Low clouds.3 mph100%29.92 "Hg2 mi
7:50 am34 °FLight snow. Low clouds.1 mph93%29.89 "Hg2 mi
7:20 am32 °FLight snow. Partly sunny.2 mph100%29.89 "Hg2 mi
6:50 am32 °FLight rain. Clear.2 mph100%29.89 "Hg2 mi
6:20 am32 °FLight snow. Partly sunny.2 mph100%29.86 "Hg2 mi
5:50 am32 °FLight snow. Passing clouds.3 mph100%29.86 "Hg2 mi
5:20 am32 °FLight snow. Passing clouds.2 mph100%29.86 "Hg2 mi
4:50 am34 °FLight snow. Passing clouds.3 mph93%29.86 "Hg2 mi
4:20 am32 °FLight snow. Passing clouds.1 mph100%29.86 "Hg2 mi
3:50 am32 °FLight snow. Passing clouds.3 mph100%29.86 "Hg2 mi
3:20 am34 °FLight snow. Passing clouds.3 mph93%29.86 "Hg2 mi
2:50 am34 °FLight snow. Passing clouds.5 mph93%29.86 "Hg2 mi
2:20 am34 °FLight snow. Passing clouds.6 mph100%29.86 "Hg3 mi
1:50 am34 °FLight snow. Passing clouds.7 mph100%29.89 "Hg4 mi
1:20 am34 °FLight snow. Passing clouds.5 mph100%29.89 "Hg4 mi
Weather by CustomWeather, © 2017

See weather overviewHow to use our weather pages